www.pogodaiklimat.ru

Погода и климат >> Архив погоды >> Россия >> Белгородская область >> Старый Оскол


ПОГОДА в Старом Осколе

АРХИВ ПОГОДЫ в Старом Осколе

Время (UTC), дата Ветер
(напр.,м/с)
 
Видим.   Явления Облачность Т
(С)
Тd
(С)
f
(%)
Тe
(С)
Тes
(С)
Комфортность P
(гПа)
Po
(гПа)
Тmin
(С)
Tmax
(С)
R
(мм)
R24
(мм)
S
(см)
00 18.08 ЮЗ 3 4000 м дымка {гроза, ливн. осадки} 9/9 240 м
[St]
+15.6 +15.1 97 +15 +15 по сезону 1009.2 983.9
03 18.08 ЮЗ 2 500 м туман ?/? +14.9 +14.9 100 +14 +14 прохладно 1009.6 984.2 +14.9 0.3
06 18.08 ЮЗ 2 4000 м дымка {туман} 10/10 210 м
[St]
+16.0 +15.3 96 +16 +16 прохладно 1010.6 985.3 +14.9 0.0
09 18.08 ЮЗ 2 10 км 9/9 720 м
[Sc]
+18.4 +16.0 86 +20 +21 по сезону 1011.2 986.0
12 18.08 ЮЗ 2 20 км 9/9 960 м
[Cb calv]
+21.0 +15.7 72 +25 +26 комфорт 1011.5 986.6
15 18.08 СЗ 3 20 км в посл. час ливневой дождь 9/9 930 м
[Cb calv]
+18.6 +16.6 88 +20 +20 прохладно 1012.8 987.6 0.0
18 18.08 СЗ 2 10 км {ливн. осадки} 3/0
[Ac trans]
+16.2 +14.8 91 +16 +16 прохладно 1014.7 989.2 +21.3 0.0
21 18.08 СЗ 1 10 км ясно +15.2 +13.7 91 +16 +16 по сезону 1015.5 990.0
00 19.08 СЗ 2 10 км 3/0
[Ac trans]
+14.0 +12.9 93 +13 +13 по сезону 1017.7 992.0
03 19.08 штиль 0 20 км 3/0
[Ac trans]
+12.6 +11.9 95 +12 +12 прохладно 1018.1 992.3 +11.5
06 19.08 С 3 50 км 3/3 600 м
[St]
+16.8 +14.6 87 +17 +21 по сезону 1018.8 993.3 +11.5
09 19.08 С 3 50 км 5/5 1000 м
[Cu hum]
+20.8 +15.2 70 +24 +30 комфорт 1018.7 993.6
12 19.08 С 3 50 км 6/6 1000 м
[Cu hum]
+24.2 +14.3 54 +27 +30 жарко 1019.6 994.7
15 19.08 С 2 50 км 3/3 1000 м
[Cu hum]
+24.8 +14.0 51 +27 +28 жарко 1018.4 993.6
18 19.08 нст 1 10 км ясно +21.5 +15.0 66 +25 +25 комфорт 1020.0 994.9 +25.6
21 19.08 С 2 10 км ясно +18.2 +13.0 72 +19 +19 тепло 1020.6 995.2
00 20.08 С 2 10 км ясно +15.6 +11.6 77 +16 +16 по сезону 1021.7 996.0
03 20.08 С 2 50 км ясно +15.0 +12.8 87 +15 +15 по сезону 1022.0 996.3 +14.6
06 20.08 нст 1 50 км ясно +22.0 +15.9 68 +26 +33 душно 1022.5 997.4 +15.0
09 20.08 С 3 50 км 3/3 1500 м
[Cu hum]
+25.7 +13.2 46 +28 +35 жарко 1022.0 997.2
12 20.08 С 4 50 км 1/1 1500 м
[Cu hum]
+27.3 +12.5 40 +29 +34 жарко 1022.0 997.3
15 20.08 СВ 3 50 км ясно +27.7 +12.5 39 +29 +30 жарко 1021.1 996.4
18 20.08 С 2 10 км ясно +22.9 +12.2 51 +26 +26 жарко 1022.6 997.5 +28.4
21 20.08 СВ 2 10 км ясно +19.2 +12.6 66 +21 +21 комфорт 1023.3 997.9
00 21.08 С 2 10 км ясно +16.0 +12.7 81 +16 +16 тепло 1024.4 998.7
03 21.08 С 2 50 км ясно +14.1 +12.4 89 +14 +14 по сезону 1024.1 998.2 +13.8
06 21.08 СВ 2 50 км ясно +21.8 +14.3 62 +25 +31 комфорт 1024.1 998.9 +13.8
09 21.08 СВ 5 50 км ясно +25.6 +14.4 50 +28 +35 жарко 1023.0 998.1
12 21.08 СВ 4
{10}
50 км ясно +27.9 +11.4 36 +29 +35 жарко 1022.0 997.3
15 21.08 СВ 5
{11}
50 км ясно +27.8 +12.4 39 +29 +30 жарко 1020.2 995.6
18 21.08 В 2 10 км ясно +23.8 +13.9 54 +26 +26 жарко 1020.7 995.8 +29.0
21 21.08 СВ 1 10 км ясно +19.8 +14.7 72 +23 +23 комфорт 1021.0 995.8
00 22.08 нст 1 10 км ясно +16.3 +15.2 93 +17 +17 тепло 1023.0 997.3
03 22.08 С 2 50 км ясно +15.5 +14.4 93 +15 +15 по сезону 1021.2 995.5 +15.5
06 22.08 СВ 2 50 км ясно +23.0 +15.3 62 +27 +33 душно 1020.7 995.7 +15.5
09 22.08 1 50 км 4/0
[Ci fib]
+27.2 +14.6 46 +30 +43 душно 1019.9 995.3
12 22.08 СЗ 3 50 км 4/0
[Ci fib]
+28.6 +13.7 40 +30 +35 жарко 1020.6 996.0
15 22.08 С 2 50 км 4/0
[Ci fib]
+28.6 +12.2 36 +30 +31 жарко 1019.3 994.7
18 22.08 нст 1 50 км 4/0
[Ci fib]
+24.2 +13.2 50 +26 +26 жарко 1020.1 995.2 +29.6
21 22.08 1 10 км 6/0
[Ci fib]
+19.8 +13.9 69 +23 +23 комфорт 1020.8 995.6
00 23.08 С 4 10 км 4/0
[Ci fib]
+18.8 +15.1 79 +20 +20 тепло 1022.7 997.3
03 23.08 С 6
{11}
50 км 4/0
[Ci fib]
+16.8 +14.0 84 +16 +16 по сезону 1022.9 997.4 +16.8
06 23.08 СВ 5 50 км 8/0
[Ci fib]
+19.2 +14.8 76 +20 +23 тепло 1023.7 998.3 +16.8
09 23.08 СВ 5 50 км 8/3 1000 м
[Cu med, cong Ci fib]
+23.0 +15.3 62 +27 +31 душно 1023.4 998.3
12 23.08 С 7-10
{12}
50 км 6/0
[Ci fib]
+26.2 +15.8 53 +29 +31 жарко 1022.6 997.8
15 23.08 СВ 6
{11}
50 км 3/0
[Ci fib]
+25.1 +15.3 55 +28 +28 жарко 1022.7 997.8
18 23.08 СВ 4 10 км 4/0
[Ci fib]
+21.0 +13.7 63 +24 +24 комфорт 1023.9 998.7 +26.5
21 23.08 С 3 10 км 5/0
[Ci fib]
+17.4 +12.2 72 +17 +17 по сезону 1024.0 998.4
00 24.08 С 3 10 км 7 баллов +16.3 +12.1 76 +16 +16 тепло 1025.8 1000.0
03 24.08 С 3 50 км 3/0
[Ci fib]
+15.1 +11.5 79 +14 +14 по сезону 1024.8 999.0 +15.1
06 24.08 СВ 3 50 км ясно +19.3 +11.9 62 +21 +26 комфорт 1024.6 999.2 +15.1
09 24.08 СВ 5 50 км ясно +24.4 +11.3 44 +26 +32 жарко 1023.4 998.6
12 24.08 СВ 3 50 км ясно +26.4 +10.9 38 +27 +34 жарко 1023.6 998.7
18 24.08 С 2 10 км ясно +20.4 +9.5 50 +22 +22 комфорт 1023.0 997.7 +27.0
21 24.08 С 2 10 км ясно +16.6 +7.7 56 +17 +17 тепло 1023.0 997.4

 

Местоположение метеостанции Старый Оскол (Белгородская область, Россия): широта 51.30 долгота 37.88 высота над уровнем моря 217 м.

В архиве по умолчанию представлена погода в Старом Осколе за последнюю неделю. Архивные данные за месяц целиком и за предыдущие месяцы, начиная с января 2011 года, Вы можете получить, выбрав интересующий диапазон дат из раскрывающегося списка и нажав кнопку "Ввод!".


*Определитесь, кто Вы:
робот инопланетянин человек

Внимание! Время в таблицах - всемирное. Для получения местного времени необходимо прибавить поправку, которая равна 3 ч.

Смотрите также архив погоды в соседних городах и на ближайших метеорологических станциях:

Погода в Богородицком (Белгородская область, Россия) (40 км)
Погода в Нижнедевицке (Воронежская область, Россия) (44 км)
Погода в Новом Осколе (Белгородская область, Россия) (61 км)
Погода в Тиме (Курская область, Россия) (63 км)
Погода в Воронеже (Воронежская область, Россия) (102 км)
Погода в Обояни (Курская область, Россия) (109 км)
Погода в Белгороде (Белгородская область, Россия) (118 км)
Погода в Лисках (Воронежская область, Россия) (118 км)
Погода в Валуйках (Белгородская область, Россия) (121 км)
Погода в Ливнах (Орловская область, Россия) (127 км)

Пояснения к столбцам:

Ветер - указаны скорость ветра в м/с - средняя за 10 мин, порывы в срок и между сроками (в фигурных скобках) и направление, откуда дует ветер: С - северный, СВ - северо-восточный, В - восточный, ЮВ - юго-восточный, Ю - южный, ЮЗ - юго-западный, З - западный, СЗ - северо-западный.
Видимость - горизонтальная дальность видимости в метрах или километрах. При видимости от 1 до 10 км при отсутствии осадков обычно наблюдается дымка, при ухудшении видимости до 1 км и менее - туман. В сухую погоду видимость может ухудшаться дымом, пылью или мглою.
Явления - указаны атмосферные явления, наблюдавшиеся в срок или в последний час перед сроком; фигурными скобками обозначены явления, наблюдавшиеся между сроками (за 1-3 часа до срока); квадратными скобками обозначены град или гололедные отложения с указанием их диаметра в мм.
Облачность - указаны через наклонную черту общая и нижняя облачность в баллах и высота нижней границы облаков в метрах; квадратными скобками обозначены формы облаков: Ci - перистые, Cs - перисто-слоистые, Cc - перисто-кучевые, Ac - высококучевые, As - высокослоистые, Sc - слоисто-кучевые, Ns - слоисто-дождевые, Cu - кучевые, Cb - кучево-дождевые. Подробнее классификацию облаков см. в Атласе облаков (PDF).
T - Температура воздуха - температура, измеренная на высоте 2 м над землей.
Td - Температура точки росы - температура, при понижении до которой содержащийся в воздухе водяной пар достигнет насыщения.
f - Относительная влажность воздуха - влажноcть воздуха, измеренная на высоте 2 м над землей.
Te - Эффективная температура - температура, которую ощущает одетый по сезону человек в тени. Характеристика душности погоды. При расчете учитывается влияние влажности воздуха и скорости ветра на теплоощущения человека.
Tes - Эффективная температура на солнце - температура, которую ощущает человек, с поправкой на солнечный нагрев. Характеристика знойности погоды. Зависит от высоты солнца над горизонтом, облачности и скорости ветра. Ночью, в пасмурную погоду, а также при ветре 12 м/с и более поправка равна нулю.
P - Атмосферное давление - приведенное к уровню моря атмосферное давление.
Po - Атмосферное давление - измеренное на уровне метеостанции атмосферное давление.
Tmin - Минимальная температура - минимум температуры воздуха на высоте 2 м над землей.
Tmax - Максимальная температура - максимум температуры воздуха на высоте 2 м над землей.
R - Количество осадков - Количество выпавших осадков за период времени, мм. При наведении курсора мыши на число - период времени, за который выпало указанное количество осадков.
R24 - Количество осадков - Количество выпавших осадков за 24 часа, мм.
S - Снежный покров - Высота снежного покрова, см. При наведении курсора мыши на число - состояние снежного покрова и степень покрытия местности в баллах.